Tracking 26006 objects as of 17-Aug-2022
HD Live streaming from Space Station
objects crossing your sky now

COSMOS 1275 DEB

Track COSMOS 1275 DEB now!
10-day predictions


NORAD ID: 13619
Int'l Code: 1981-053GQ
Perigee: 869.9 km
Apogee: 918.0 km
Inclination: 83.0 °
Period: 102.7 minutes
Semi major axis: 7264 km
RCS: 0.0428 m2 (small)
Launch date: June 4, 1981
Source: Commonwealth of Independent States (former USSR) (CIS)
Launch site: PLESETSK MISSILE AND SPACE COMPLEX (PKMTR)

Note: This is SATELLITE DEBRIS
aabbcc
Your satellite tracking list
Your tracking list is empty




NASA's NSSDC Master Catalog

Two Line Element Set (TLE):
1 13619U 81053GM  22228.87796851  .00000855  00000-0  54783-3 0  9992
2 13619  83.0333 105.1413 0033067 153.3685 336.8658 14.02017034 26376
Source of the keplerian elements: AFSPC